Stündliche Wetter Abay (Saryagashskiy rayon)

Heute, 17 Juni, Donnerstag

Zeit Temperatur Niederschläge Wind Luftdruck Luftfeuchtigkeit
00:00 +25°C° 0 mm 2 m/S 724 mmHg 24%
01:00 +24°C° 0 mm 3 m/S 724 mmHg 28%
02:00 +22°C° 0 mm 3 m/S 724 mmHg 32%
03:00 +22°C° 0 mm 3 m/S 724 mmHg 33%
04:00 +23°C° 0 mm 2 m/S 724 mmHg 34%
05:00 +21°C° 0 mm 2 m/S 724 mmHg 34%
06:00 +24°C° 0 mm 1 m/S 725 mmHg 30%
07:00 +27°C° 0 mm 1 m/S 725 mmHg 27%
08:00 +29°C° 0 mm 1 m/S 725 mmHg 23%
09:00 +31°C° 0 mm 1 m/S 725 mmHg 20%
10:00 +33°C° 0 mm 1 m/S 725 mmHg 18%
11:00 +35°C° 0 mm 2 m/S 725 mmHg 15%
12:00 +36°C° 0 mm 2 m/S 725 mmHg 14%
13:00 +37°C° 0 mm 3 m/S 724 mmHg 12%
14:00 +38°C° 0 mm 3 m/S 724 mmHg 11%
15:00 +38°C° 0 mm 3 m/S 724 mmHg 11%
16:00 +38°C° 0 mm 3 m/S 723 mmHg 11%
17:00 +38°C° 0 mm 2 m/S 723 mmHg 10%
18:00 +36°C° 0 mm 3 m/S 723 mmHg 13%
19:00 +34°C° 0 mm 3 m/S 723 mmHg 15%
20:00 +31°C° 0 mm 3 m/S 723 mmHg 17%
21:00 +30°C° 0 mm 3 m/S 723 mmHg 19%
22:00 +29°C° 0 mm 3 m/S 723 mmHg 20%
23:00 +27°C° 0 mm 3 m/S 723 mmHg 21%

Morgen, 18 Juni, Freitag

Zeit Temperatur Niederschläge Wind Luftdruck Luftfeuchtigkeit
00:00 +27°C° 0 mm 3 m/S 723 mmHg 24%
01:00 +26°C° 0 mm 3 m/S 723 mmHg 26%
02:00 +25°C° 0 mm 2 m/S 723 mmHg 28%
03:00 +24°C° 0 mm 2 m/S 723 mmHg 29%
04:00 +24°C° 0 mm 2 m/S 723 mmHg 29%
05:00 +24°C° 0 mm 2 m/S 723 mmHg 30%
06:00 +26°C° 0 mm 2 m/S 724 mmHg 26%
07:00 +28°C° 0 mm 1 m/S 724 mmHg 23%
08:00 +30°C° 0 mm 1 m/S 725 mmHg 20%
09:00 +32°C° 0 mm 1 m/S 725 mmHg 17%
10:00 +34°C° 0 mm 1 m/S 725 mmHg 14%
11:00 +36°C° 0 mm 1 m/S 725 mmHg 11%
12:00 +38°C° 0 mm 2 m/S 724 mmHg 10%
13:00 +39°C° 0 mm 3 m/S 724 mmHg 8%
14:00 +40°C° 0 mm 3 m/S 724 mmHg 7%
15:00 +41°C° 0 mm 4 m/S 724 mmHg 7%
16:00 +41°C° 0 mm 4 m/S 724 mmHg 6%
17:00 +41°C° 0 mm 4 m/S 723 mmHg 6%
18:00 +38°C° 0 mm 4 m/S 723 mmHg 8%
19:00 +36°C° 0 mm 4 m/S 723 mmHg 10%
20:00 +33°C° 0 mm 4 m/S 723 mmHg 12%
21:00 +31°C° 0 mm 3 m/S 724 mmHg 13%
22:00 +30°C° 0 mm 3 m/S 724 mmHg 14%
23:00 +29°C° 0 mm 3 m/S 724 mmHg 15%

übermorgen, 19 Juni, Samstag

Zeit Temperatur Niederschläge Wind Luftdruck Luftfeuchtigkeit
00:00 +28°C° 0 mm 3 m/S 724 mmHg 16%
01:00 +27°C° 0 mm 2 m/S 724 mmHg 17%
02:00 +26°C° 0 mm 2 m/S 724 mmHg 18%
03:00 +26°C° 0 mm 2 m/S 724 mmHg 18%
04:00 +25°C° 0 mm 2 m/S 724 mmHg 19%
05:00 +24°C° 0 mm 1 m/S 724 mmHg 19%
06:00 +27°C° 0 mm 1 m/S 725 mmHg 17%
07:00 +29°C° 0 mm 1 m/S 725 mmHg 15%
08:00 +31°C° 0 mm 1 m/S 725 mmHg 13%
09:00 +34°C° 0 mm 1 m/S 725 mmHg 12%
10:00 +37°C° 0 mm 2 m/S 725 mmHg 11%
11:00 +39°C° 0 mm 2 m/S 725 mmHg 9%
12:00 +40°C° 0 mm 3 m/S 725 mmHg 9%
13:00 +42°C° 0 mm 3 m/S 724 mmHg 8%
14:00 +43°C° 0 mm 4 m/S 724 mmHg 8%
15:00 +42°C° 0 mm 5 m/S 724 mmHg 9%
16:00 +43°C° 0 mm 7 m/S 723 mmHg 10%
17:00 +41°C° 0 mm 8 m/S 723 mmHg 11%
18:00 +39°C° 0 mm 8 m/S 723 mmHg 14%
19:00 +37°C° 0 mm 8 m/S 724 mmHg 17%
20:00 +33°C° 0 mm 8 m/S 724 mmHg 21%
21:00 +32°C° 0 mm 7 m/S 724 mmHg 22%
22:00 +29°C° 0 mm 7 m/S 724 mmHg 23%
23:00 +27°C° 0 mm 6 m/S 724 mmHg 25%

20 Juni, Sonntag

Zeit Temperatur Niederschläge Wind Luftdruck Luftfeuchtigkeit
00:00 +26°C° 0 mm 5 m/S 724 mmHg 24%
01:00 +25°C° 0 mm 5 m/S 724 mmHg 23%
02:00 +23°C° 0 mm 4 m/S 724 mmHg 21%
03:00 +22°C° 0 mm 4 m/S 724 mmHg 23%
04:00 +21°C° 0 mm 4 m/S 725 mmHg 24%
05:00 +20°C° 0 mm 4 m/S 725 mmHg 25%
06:00 +22°C° 0 mm 4 m/S 725 mmHg 24%
07:00 +25°C° 0 mm 3 m/S 726 mmHg 23%
08:00 +26°C° 0 mm 3 m/S 726 mmHg 22%
09:00 +28°C° 0 mm 3 m/S 726 mmHg 19%
10:00 +31°C° 0 mm 3 m/S 726 mmHg 17%
11:00 +34°C° 0 mm 3 m/S 726 mmHg 15%
12:00 +35°C° 0 mm 3 m/S 726 mmHg 13%
13:00 +36°C° 0 mm 4 m/S 726 mmHg 11%
14:00 +37°C° 0 mm 5 m/S 725 mmHg 9%
15:00 +38°C° 0 mm 6 m/S 725 mmHg 9%
16:00 +38°C° 0 mm 6 m/S 725 mmHg 9%
17:00 +38°C° 0 mm 7 m/S 725 mmHg 9%
18:00 +35°C° 0 mm 7 m/S 725 mmHg 10%
19:00 +33°C° 0 mm 8 m/S 726 mmHg 10%
20:00 +31°C° 0 mm 8 m/S 726 mmHg 11%
21:00 +28°C° 0 mm 8 m/S 726 mmHg 12%
22:00 +27°C° 0 mm 8 m/S 726 mmHg 13%
23:00 +24°C° 0 mm 7 m/S 726 mmHg 14%

21 Juni, Montag

Zeit Temperatur Niederschläge Wind Luftdruck Luftfeuchtigkeit
00:00 +23°C° 0 mm 7 m/S 726 mmHg 16%
01:00 +22°C° 0 mm 6 m/S 726 mmHg 18%
02:00 +21°C° 0 mm 5 m/S 726 mmHg 20%
03:00 +21°C° 0 mm 4 m/S 726 mmHg 22%
04:00 +20°C° 0 mm 4 m/S 726 mmHg 23%
05:00 +19°C° 0 mm 3 m/S 726 mmHg 25%
06:00 +21°C° 0 mm 3 m/S 726 mmHg 22%
07:00 +22°C° 0 mm 3 m/S 727 mmHg 20%
08:00 +25°C° 0 mm 4 m/S 727 mmHg 17%
09:00 +28°C° 0 mm 4 m/S 727 mmHg 16%
10:00 +30°C° 0 mm 4 m/S 727 mmHg 14%
11:00 +33°C° 0 mm 3 m/S 727 mmHg 12%
12:00 +35°C° 0 mm 4 m/S 727 mmHg 12%
13:00 +36°C° 0 mm 4 m/S 727 mmHg 12%
14:00 +37°C° 0 mm 4 m/S 726 mmHg 12%
15:00 +37°C° 0 mm 5 m/S 726 mmHg 14%
16:00 +38°C° 0 mm 6 m/S 726 mmHg 16%
17:00 +38°C° 0 mm 7 m/S 726 mmHg 17%
18:00 +35°C° 0 mm 6 m/S 726 mmHg 19%
19:00 +34°C° 0 mm 5 m/S 726 mmHg 21%
20:00 +32°C° 0 mm 4 m/S 726 mmHg 23%
21:00 +30°C° 0 mm 4 m/S 726 mmHg 27%
22:00 +29°C° 0 mm 4 m/S 726 mmHg 30%
23:00 +27°C° 0 mm 4 m/S 726 mmHg 34%

22 Juni, Dienstag

Zeit Temperatur Niederschläge Wind Luftdruck Luftfeuchtigkeit
00:00 +27°C° 0 mm 3 m/S 726 mmHg 37%
01:00 +26°C° 0 mm 3 m/S 726 mmHg 40%
02:00 +25°C° 0 mm 3 m/S 726 mmHg 43%
03:00 +25°C° 0 mm 3 m/S 726 mmHg 44%
04:00 +25°C° 0 mm 2 m/S 726 mmHg 45%
05:00 +24°C° 0 mm 2 m/S 726 mmHg 46%
06:00 +26°C° 0 mm 2 m/S 727 mmHg 41%
07:00 +28°C° 0 mm 2 m/S 727 mmHg 36%
08:00 +30°C° 0 mm 2 m/S 728 mmHg 31%
09:00 +33°C° 0 mm 3 m/S 728 mmHg 26%
10:00 +34°C° 0 mm 3 m/S 728 mmHg 22%
11:00 +36°C° 0 mm 4 m/S 728 mmHg 17%
12:00 +37°C° 0 mm 4 m/S 727 mmHg 16%
13:00 +37°C° 0 mm 4 m/S 727 mmHg 14%
14:00 +39°C° 0 mm 5 m/S 727 mmHg 12%
15:00 +39°C° 0 mm 5 m/S 727 mmHg 11%
16:00 +39°C° 0 mm 6 m/S 726 mmHg 11%
17:00 +39°C° 0 mm 6 m/S 726 mmHg 10%
18:00 +36°C° 0 mm 6 m/S 726 mmHg 11%
19:00 +34°C° 0 mm 6 m/S 726 mmHg 13%
20:00 +32°C° 0 mm 5 m/S 726 mmHg 14%
21:00 +29°C° 0 mm 5 m/S 726 mmHg 16%
22:00 +28°C° 0 mm 5 m/S 726 mmHg 17%
23:00 +26°C° 0 mm 5 m/S 726 mmHg 19%
Mehr zeigen

Wir brauchen deine Erlaubnis

Meteoprog und unser Service Anbieter werden persönliche Daten aufbewahren, so wie Cookies, Geräte Bezeichnung oder ähnliche Technologien von deinem Gerät und Prozess, so wie Persönliche Daten Inhalte und Werbungen, genauso wie social Media und den Verkehr zu analysieren.

  • Aufbewahrung und/oder Zugang zu deiner Geräte Informationen.

    Cookies, Geräte Bezeichnung oder andere Informationen, können aufbewahrt oder Zugang zu deinem Gerät erhalten, für den Grund, der oben angegeben wird.

  • Personalisierte Werbung und Inhalte, Messungen, Einblick in das Publikum und Produkt Entwicklung.

    Werbungen und Inhalte können personalisiert werden, basierend auf ein Profil. Mehr Daten können besser personalisierte Werbungen und Inhalte hinzufügen. Werbung und Inhalte können gezeigt und gemessen werden. Einblicke über das Publikum, welche die Werbung gesehen haben und den Inhalt, können abgeleitet werden. So wie Daten können genutzt werden, um es zu verbessern oder die Benutzer Erfahrung zu verbessern das System und die Software.

Wenn du “Ich stimme zu” klickst, erlaubst du uns, die Cookies zu benutzen die Geräte Bezeichnung, den Web oder ähnliche Technologien zu benutzen. Deine Settings, können in deinem Gerät bei deinem Browser geändert werden.

Für den bestimmten Zweck, berechtigten Interessen beruhen darauf, mehr als auf den Inhalt. Du kannst mehr darüber in unseren Privaten und Cookie Politik lesen.